• In Österreich
  • Länderverzeichnis
  • Für 7 Tage
  • Wassertemperatur
  • Satellitenkarten
  • Wetterkarte
  • News
  • Widgets
  • user-avatar
    Anmelden

    Stündliche Wetter Maun

    Heute, 19 September, Mittwoch

    Zeit Temperatur Niederschläge Wind Luftdruck Luftfeuchtigkeit
    00:00 +27°C° 0 mm 2 m/S 680 mmHg 12%
    01:00 +26°C° 0 mm 2 m/S 680 mmHg 13%
    02:00 +26°C° 0 mm 3 m/S 680 mmHg 15%
    03:00 +25°C° 0 mm 3 m/S 680 mmHg 15%
    04:00 +25°C° 0 mm 3 m/S 680 mmHg 16%
    05:00 +24°C° 0 mm 3 m/S 680 mmHg 17%
    06:00 +26°C° 0 mm 3 m/S 681 mmHg 15%
    07:00 +28°C° 0 mm 3 m/S 681 mmHg 14%
    08:00 +29°C° 0 mm 4 m/S 682 mmHg 13%
    09:00 +33°C° 0 mm 3 m/S 683 mmHg 11%
    10:00 +36°C° 0 mm 3 m/S 683 mmHg 9%
    11:00 +40°C° 0 mm 3 m/S 683 mmHg 7%
    12:00 +41°C° 0 mm 2 m/S 683 mmHg 6%
    13:00 +42°C° 0 mm 2 m/S 682 mmHg 5%
    14:00 +43°C° 0 mm 1 m/S 682 mmHg 4%
    15:00 +43°C° 0 mm 2 m/S 681 mmHg 4%
    16:00 +42°C° 0 mm 2 m/S 681 mmHg 4%
    17:00 +41°C° 0 mm 2 m/S 680 mmHg 4%
    18:00 +38°C° 0 mm 2 m/S 680 mmHg 5%
    19:00 +35°C° 0 mm 2 m/S 680 mmHg 6%
    20:00 +31°C° 0 mm 2 m/S 679 mmHg 7%
    21:00 +30°C° 0 mm 2 m/S 680 mmHg 8%
    22:00 +28°C° 0 mm 2 m/S 680 mmHg 9%
    23:00 +27°C° 0 mm 2 m/S 681 mmHg 10%

    Morgen, 20 September, Donnerstag

    Zeit Temperatur Niederschläge Wind Luftdruck Luftfeuchtigkeit
    00:00 +27°C° 0 mm 3 m/S 681 mmHg 10%
    01:00 +26°C° 0 mm 4 m/S 681 mmHg 11%
    02:00 +25°C° 0 mm 5 m/S 681 mmHg 12%
    03:00 +23°C° 0 mm 4 m/S 681 mmHg 14%
    04:00 +23°C° 0 mm 4 m/S 681 mmHg 15%
    05:00 +22°C° 0 mm 4 m/S 681 mmHg 17%
    06:00 +22°C° 0 mm 4 m/S 682 mmHg 16%
    07:00 +23°C° 0 mm 4 m/S 682 mmHg 15%
    08:00 +25°C° 0 mm 5 m/S 683 mmHg 15%
    09:00 +28°C° 0 mm 4 m/S 683 mmHg 12%
    10:00 +33°C° 0 mm 4 m/S 684 mmHg 9%
    11:00 +36°C° 0 mm 4 m/S 684 mmHg 7%
    12:00 +38°C° 0 mm 3 m/S 683 mmHg 6%
    13:00 +39°C° 0 mm 3 m/S 682 mmHg 6%
    14:00 +42°C° 0 mm 3 m/S 682 mmHg 5%
    15:00 +42°C° 0 mm 3 m/S 681 mmHg 5%
    16:00 +40°C° 0 mm 3 m/S 681 mmHg 5%
    17:00 +40°C° 0 mm 3 m/S 680 mmHg 5%
    18:00 +37°C° 0 mm 2 m/S 680 mmHg 7%
    19:00 +33°C° 0 mm 1 m/S 680 mmHg 9%
    20:00 +30°C° 0 mm 1 m/S 680 mmHg 10%
    21:00 +29°C° 0 mm 1 m/S 680 mmHg 11%
    22:00 +28°C° 0 mm 2 m/S 681 mmHg 12%
    23:00 +28°C° 0 mm 3 m/S 681 mmHg 13%

    übermorgen, 21 September, Freitag

    Zeit Temperatur Niederschläge Wind Luftdruck Luftfeuchtigkeit
    00:00 +27°C° 0 mm 3 m/S 681 mmHg 17%
    01:00 +26°C° 0 mm 3 m/S 681 mmHg 21%
    02:00 +26°C° 0 mm 4 m/S 680 mmHg 24%
    03:00 +25°C° 0 mm 3 m/S 680 mmHg 24%
    04:00 +25°C° 0 mm 3 m/S 680 mmHg 25%
    05:00 +24°C° 0 mm 3 m/S 680 mmHg 25%
    06:00 +26°C° 0 mm 4 m/S 681 mmHg 24%
    07:00 +27°C° 0 mm 5 m/S 682 mmHg 24%
    08:00 +29°C° 0 mm 6 m/S 683 mmHg 24%
    09:00 +32°C° 0 mm 6 m/S 683 mmHg 20%
    10:00 +35°C° 0 mm 6 m/S 683 mmHg 17%
    11:00 +39°C° 0 mm 6 m/S 684 mmHg 13%
    12:00 +40°C° 0 mm 5 m/S 683 mmHg 11%
    13:00 +41°C° 0 mm 4 m/S 682 mmHg 9%
    14:00 +42°C° 0 mm 4 m/S 681 mmHg 8%
    15:00 +42°C° 0 mm 4 m/S 681 mmHg 8%
    16:00 +41°C° 0 mm 4 m/S 680 mmHg 8%
    17:00 +41°C° 0 mm 4 m/S 680 mmHg 9%
    18:00 +37°C° 0 mm 4 m/S 680 mmHg 11%
    19:00 +34°C° 0 mm 3 m/S 680 mmHg 13%
    20:00 +31°C° 0 mm 2 m/S 680 mmHg 15%
    21:00 +30°C° 0 mm 2 m/S 680 mmHg 16%
    22:00 +29°C° 0 mm 2 m/S 681 mmHg 18%
    23:00 +28°C° 0 mm 2 m/S 681 mmHg 20%

    22 September, Samstag

    Zeit Temperatur Niederschläge Wind Luftdruck Luftfeuchtigkeit
    00:00 +28°C° 0 mm 3 m/S 681 mmHg 21%
    01:00 +28°C° 0 mm 3 m/S 681 mmHg 23%
    02:00 +29°C° 0 mm 4 m/S 681 mmHg 24%
    03:00 +28°C° 0 mm 3 m/S 681 mmHg 25%
    04:00 +28°C° 0 mm 3 m/S 680 mmHg 27%
    05:00 +27°C° 0 mm 3 m/S 680 mmHg 28%
    06:00 +28°C° 0 mm 4 m/S 681 mmHg 27%
    07:00 +28°C° 0 mm 4 m/S 682 mmHg 25%
    08:00 +29°C° 0 mm 5 m/S 682 mmHg 24%
    09:00 +33°C° 0 mm 5 m/S 683 mmHg 20%
    10:00 +36°C° 0 mm 5 m/S 683 mmHg 17%
    11:00 +40°C° 0 mm 5 m/S 683 mmHg 13%
    12:00 +40°C° 0 mm 5 m/S 682 mmHg 12%
    13:00 +41°C° 0 mm 4 m/S 682 mmHg 11%
    14:00 +42°C° 0 mm 4 m/S 681 mmHg 10%
    15:00 +41°C° 0 mm 4 m/S 680 mmHg 10%
    16:00 +41°C° 0 mm 4 m/S 680 mmHg 11%
    17:00 +40°C° 0 mm 4 m/S 680 mmHg 11%
    18:00 +37°C° 0 mm 4 m/S 680 mmHg 13%
    19:00 +35°C° 0 mm 3 m/S 680 mmHg 15%
    20:00 +33°C° 0 mm 3 m/S 681 mmHg 17%
    21:00 +31°C° 0 mm 3 m/S 681 mmHg 17%
    22:00 +30°C° 0 mm 3 m/S 681 mmHg 17%
    23:00 +29°C° 0 mm 3 m/S 681 mmHg 17%

    23 September, Sonntag

    Zeit Temperatur Niederschläge Wind Luftdruck Luftfeuchtigkeit
    00:00 +28°C° 0 mm 3 m/S 681 mmHg 18%
    01:00 +27°C° 0 mm 3 m/S 680 mmHg 19%
    02:00 +26°C° 0 mm 3 m/S 680 mmHg 21%
    03:00 +25°C° 0 mm 3 m/S 680 mmHg 22%
    04:00 +25°C° 0 mm 3 m/S 679 mmHg 24%
    05:00 +24°C° 0 mm 3 m/S 679 mmHg 26%
    06:00 +25°C° 0 mm 4 m/S 680 mmHg 24%
    07:00 +27°C° 0 mm 5 m/S 681 mmHg 23%
    08:00 +29°C° 0 mm 5 m/S 682 mmHg 21%
    09:00 +32°C° 0 mm 5 m/S 682 mmHg 18%
    10:00 +35°C° 0 mm 5 m/S 682 mmHg 15%
    11:00 +39°C° 0 mm 5 m/S 683 mmHg 12%
    12:00 +40°C° 0 mm 4 m/S 682 mmHg 10%
    13:00 +40°C° 0 mm 3 m/S 681 mmHg 9%
    14:00 +41°C° 0 mm 2 m/S 680 mmHg 8%
    15:00 +40°C° 0 mm 2 m/S 680 mmHg 8%
    16:00 +40°C° 0 mm 2 m/S 680 mmHg 8%
    17:00 +40°C° 0 mm 2 m/S 679 mmHg 7%
    18:00 +37°C° 0 mm 2 m/S 679 mmHg 9%
    19:00 +34°C° 0 mm 2 m/S 680 mmHg 11%
    20:00 +30°C° 0 mm 2 m/S 680 mmHg 12%
    21:00 +30°C° 0 mm 2 m/S 680 mmHg 13%
    22:00 +29°C° 0 mm 2 m/S 680 mmHg 14%
    23:00 +28°C° 0 mm 3 m/S 680 mmHg 15%

    24 September, Montag

    Zeit Temperatur Niederschläge Wind Luftdruck Luftfeuchtigkeit
    00:00 +27°C° 0 mm 3 m/S 680 mmHg 16%
    01:00 +26°C° 0 mm 2 m/S 679 mmHg 17%
    02:00 +25°C° 0 mm 2 m/S 679 mmHg 18%
    03:00 +24°C° 0 mm 2 m/S 679 mmHg 19%
    04:00 +24°C° 0 mm 2 m/S 679 mmHg 21%
    05:00 +23°C° 0 mm 2 m/S 679 mmHg 22%
    06:00 +25°C° 0 mm 3 m/S 680 mmHg 21%
    07:00 +26°C° 0 mm 4 m/S 681 mmHg 20%
    08:00 +28°C° 0 mm 4 m/S 682 mmHg 19%
    09:00 +32°C° 0 mm 5 m/S 682 mmHg 16%
    10:00 +35°C° 0 mm 5 m/S 682 mmHg 13%
    11:00 +40°C° 0 mm 5 m/S 682 mmHg 10%
    12:00 +40°C° 0 mm 4 m/S 682 mmHg 9%
    13:00 +41°C° 0 mm 4 m/S 681 mmHg 8%
    14:00 +42°C° 0 mm 3 m/S 680 mmHg 7%
    15:00 +42°C° 0 mm 3 m/S 680 mmHg 7%
    16:00 +42°C° 0 mm 3 m/S 679 mmHg 7%
    17:00 +40°C° 0 mm 3 m/S 679 mmHg 7%
    18:00 +37°C° 0 mm 3 m/S 679 mmHg 9%
    19:00 +34°C° 0 mm 2 m/S 679 mmHg 10%
    20:00 +31°C° 0 mm 2 m/S 679 mmHg 12%
    21:00 +30°C° 0 mm 2 m/S 679 mmHg 13%
    22:00 +29°C° 0 mm 2 m/S 679 mmHg 14%
    23:00 +28°C° 0 mm 3 m/S 680 mmHg 16%
    Mehr zeigen